Flag for Paraguay Weather past 2 weeks in Ciudad del Este, Paraguay

Now
59 °F

Clear.


Feels Like: 58 °F
Forecast: 54 / 84 °F
Wind: 8 mph from Southeast

Location: Foz Do Iguacu Aeroporto

Current Time: Sep 17, 2014 at 12:39:16 AM

Latest Report: Sep 17, 2014 at 12:00 AM


Visibility: 10 mi

Pressure: 29.98 "Hg

Humidity: 88%

Dew point: 55 °F

Location of Ciudad del EsteLocation

Historic Weather in Ciudad del Este — Graph

°F

Ciudad del Este temperature yesterday

Maximum temperature yesterday: 77 °F (at 2:00 PM)
Minimum temperature yesterday: 54 °F (at 6:00 AM)
Average temperature yesterday: 65 °F

Past Weeks' High & Low Weather Summary

 TemperatureHumidityPressure
High97 °F (Sep 13, 2:00 PM)100% (Sep 3, 6:00 AM)30.12 "Hg (Sep 3, 6:00 AM)
Low54 °F (Sep 16, 6:00 AM)26% (Sep 13, 4:00 PM)29.68 "Hg (Sep 2, 3:00 PM)
Average74 °F71%29.93 "Hg
* Reported Sep 1 11:00 PM — Sep 16 11:00 PM, Ciudad del Este, Weather by CustomWeather, © 2014

Note: Actual official high and low records may vary slightly from our data, if they occured in-between our weather recording intervals... More about our weather records

Advertising

Ciudad del Este weather history for previous 24 hours

 ConditionsComfort  
Time TempWeatherWind HumidityBarometerVisibility
11:00 PM
Sep 16
59 °FClear.7 mph94%29.98 "Hg10 mi
10:00 PM59 °FClear.3 mph94%29.98 "Hg10 mi
9:00 PM59 °FClear.2 mph88%29.98 "Hg10 mi
8:00 PM61 °FClear.3 mph88%29.95 "Hg10 mi
7:00 PM64 °FClear.2 mph83%29.95 "Hg10 mi
6:00 PM64 °FClear.2 mph83%29.95 "Hg10 mi
5:00 PM75 °FClear.3 mph57%29.95 "Hg10 mi
4:00 PM77 °FSunny.2 mph47%29.95 "Hg10 mi
3:00 PM77 °FSunny.3 mph44%29.98 "Hg10 mi
2:00 PM77 °FSunny.2 mph47%29.98 "Hg10 mi
1:00 PM75 °FSunny.5 mph50%30.01 "Hg10 mi
12:00 PM73 °FSunny.8 mph53%30.04 "Hg10 mi
11:00 AM70 °FPassing clouds.7 mph60%30.07 "HgN/A
10:00 AM68 °FPassing clouds.8 mph60%30.09 "HgN/A
9:00 AM64 °FScattered clouds.10 mph68%30.09 "HgN/A
8:00 AM63 °FScattered clouds.9 mph77%30.09 "HgN/A
7:00 AM59 °FPassing clouds.6 mph88%30.09 "HgN/A
6:00 AM54 °FPassing clouds.3 mph100%30.07 "HgN/A
5:00 AM55 °FPassing clouds.3 mph94%30.04 "HgN/A
4:00 AM59 °FPassing clouds.3 mph94%30.04 "HgN/A
3:00 AM59 °FPassing clouds.5 mph88%30.04 "HgN/A
2:00 AM59 °FPassing clouds.5 mph88%30.04 "HgN/A
1:00 AM61 °FPassing clouds.3 mph88%30.07 "HgN/A
12:00 AM61 °FPassing clouds.3 mph88%30.07 "HgN/A
Weather by CustomWeather, © 2014

See weather overviewHow to use our weather pages